Location: Unspecified
(0.0000°N, 0.0000°E)
Time: 15:48:02
(UTC+00:00)

Vanguard 2 - Pass Details

Date: 13 December 2017
Orbit: 553 x 2939 km, 32.9° (Epoch: 17 July)

Event Time Altitude Azimuth Distance (km) Brightness Sun altitude
Rises 23:36:05 0° 301° (WNW) 3,133 - -66.4°
Reaches altitude 10° 23:38:05 10° 300° (WNW) 2,381 - -66.5°
Maximum altitude 23:43:40 78° 215° (SW) 1,111 - -66.6°
Drops below altitude 10° 23:53:08 10° 128° (SE) 3,916 - -66.8°
Exits shadow 23:55:08 - 128° (SE) 4,598 11.6 -66.8°
Sets 23:57:17 0° 127° (SE) 5,312 12.0 -66.8°
